Probability
0 0 0 0 1 1 1 0 0 0 2 3 3 1 0 0 0 0 0 0 0 0 0 0 0 0 0 0 0 0 0 0 0 0 0 0 0 0 0 0 0 0 0
1 0 0 0 0 1 1 1 1 1 2 2 2 1 0 0 0 0 0 0 0 0 0 0 0 0 0 0 0 0 0 0 0 0 0 0 0 0 0 0 0 0 0
2 1 0 0 0 0 1 1 1 2 2 1 0 0 0 0 0 0 0 0 0 0 0 0 0 0 0 0 0 0 0 0 0 0 0 0 0 0 0 0 0 0 0
3 2 1 0 0 0 0 1 1 1 1 0 0 0 0 0 0 0 0 0 0 0 0 0 0 0 0 0 0 0 0 0 0 0 0 0 0 0 0 0 0 0 0
2 2 1 1 0 0 0 0 0 0 0 0 0 0 0 0 0 0 0 0 0 0 0 0 0 0 0 0 0 0 0 0 0 0 0 0 0 0 0 0 0 0 0
1 1 2 2 1 0 0 0 0 0 0 0 0 0 0 0 0 0 0 0 0 0 0 0 0 0 0 0 0 0 0 0 0 0 0 0 0 0 0 0 0 0 0
0 1 3 3 2 1 0 0 0 0 0 0 0 0 1 1 1 1 0 0 0 0 0 0 0 0 0 0 0 0 0 0 0 0 0 0 0 0 0 0 0 0 0
1 2 3 3 3 2 2 1 0 0 0 0 0 1 2 2 2 2 1 0 0 0 0 0 0 0 0 0 0 0 0 0 0 0 0 0 0 0 0 0 0 0 0
1 2 3 3 3 3 3 2 1 0 0 0 0 1 2 2 3 2 1 0 0 0 0 0 0 0 0 0 0 0 0 0 0 0 0 0 0 0 0 1 1 0 0
1 2 3 3 2 3 3 3 2 1 1 1 1 1 1 1 1 2 2 1 1 1 1 1 0 0 0 0 0 1 1 0 0 0 0 0 0 0 0 1 1 0 0
1 2 2 1 1 2 3 3 3 3 2 2 1 0 0 0 0 1 1 2 3 4 3 2 1 0 0 0 1 2 1 0 0 0 0 0 0 0 1 1 1 0 0
0 1 1 1 0 2 3 3 3 2 2 1 0 0 0 0 0 0 0 1 3 3 3 2 1 0 0 0 1 1 1 0 0 0 0 1 2 2 2 1 1 0 0
1 1 1 0 0 1 2 2 1 1 1 0 0 0 0 0 0 0 0 0 1 1 2 1 0 0 0 0 0 0 0 0 0 0 0 1 2 3 3 2 1 0 0
2 2 1 0 0 0 1 1 0 0 0 0 0 0 0 0 0 0 0 0 0 1 1 1 0 0 0 0 0 0 0 0 0 0 0 0 1 2 3 3 1 0 0
4 3 1 0 0 0 0 0 0 0 0 0 0 0 0 0 0 0 0 0 0 1 1 0 0 0 0 0 0 0 0 1 1 1 0 0 1 3 4 4 3 1 0
4 3 2 1 1 1 0 0 0 0 0 0 0 1 0 0 0 0 0 0 0 0 0 0 0 0 0 1 1 1 1 1 0 0 0 1 3 6 8 8 6 4 2
3 3 3 2 2 3 2 0 0 0 0 0 0 0 0 0 0 0 0 0 0 0 0 0 0 0 0 1 1 2 2 1 0 1 1 1 3 6 9 11 11 9 6
2 3 3 3 4 5 3 1 0 0 0 0 0 0 0 0 0 0 0 0 0 0 0 0 0 0 0 1 2 3 3 2 1 1 1 1 2 4 6 9 11 11 11
1 2 2 3 5 4 2 1 0 0 0 0 0 0 1 1 2 2 1 0 0 0 0 0 0 0 0 1 2 3 2 2 2 2 1 1 1 2 2 5 7 9 11
3 4 5 6 6 5 3 1 0 1 1 1 0 1 2 3 4 5 3 1 1 0 1 1 0 0 0 1 2 2 1 1 2 2 1 1 1 1 1 2 3 5 7
7 9 10 10 9 8 5 3 1 1 2 1 1 2 3 4 6 7 5 3 2 2 2 2 1 0 0 0 1 1 0 0 1 1 1 0 0 0 1 1 1 2 2
11 13 15 14 13 11 7 3 1 2 2 1 1 3 3 5 7 8 6 4 3 3 3 3 1 1 0 0 0 0 0 0 0 0 0 0 0 0 0 1 0 0 0
13 14 16 15 13 11 7 3 2 2 3 2 2 2 3 5 7 8 7 4 3 3 3 3 2 1 0 0 0 0 0 0 0 0 0 0 0 0 0 1 1 0 1
14 13 13 12 10 8 6 4 3 3 3 1 1 1 2 4 5 7 6 3 2 2 2 2 2 1 0 0 0 0 0 0 0 0 0 0 0 0 0 1 1 1 1
15 14 13 12 10 8 7 5 4 4 2 1 0 0 1 3 3 4 4 2 1 1 1 1 1 0 0 0 0 0 0 0 0 0 0 0 0 0 0 1 1 0 1
15 16 16 14 11 9 9 7 5 3 1 0 0 0 1 2 3 4 3 1 0 0 0 0 0 0 0 0 0 0 0 0 1 1 1 0 0 0 0 1 0 0 0
Wind_Speed
3 3 9 12 13 13 13 13 14 14 15 15 16 16 15 15 15 14 14 13 12 11 11 10 10 10 9 9 9 9 9 9 9 10 10 10 10 11 11 11 11 7 12
6 5 10 12 13 13 13 12 13 14 15 15 15 15 15 14 14 13 13 12 11 11 10 10 9 9 8 8 8 8 8 8 8 9 9 9 9 10 10 11 10 7 12
8 6 9 12 13 13 12 12 13 14 15 15 14 14 14 13 13 12 12 11 10 10 9 9 8 8 7 7 7 7 6 6 7 7 7 4 5 8 9 10 11 11 11
9 5 8 13 13 13 13 13 13 15 15 14 14 13 13 12 12 11 11 10 10 9 9 8 7 7 6 6 6 5 5 5 5 6 3 2 3 8 9 10 11 11 11
7 5 8 14 13 13 13 13 14 14 14 13 13 13 12 11 11 10 10 9 9 8 8 7 6 6 5 4 4 3 3 3 4 3 2 2 2 7 9 10 10 11 11
7 6 8 13 14 14 13 13 13 13 13 13 12 12 11 11 10 10 9 9 8 8 7 6 5 4 4 3 2 2 2 2 3 2 2 2 2 7 9 10 10 10 10
8 6 8 13 13 14 13 13 13 12 12 12 11 11 11 10 10 9 8 8 7 7 6 5 5 4 3 3 2 1 1 1 1 2 2 2 3 8 9 10 10 10 10
9 6 7 13 14 13 13 13 12 12 11 11 10 10 10 9 9 8 8 7 7 6 6 6 5 5 4 3 3 2 2 1 2 3 2 3 5 8 9 9 9 10 10
9 7 5 6 9 12 13 12 12 11 11 10 10 9 9 8 8 7 7 7 7 6 6 6 6 5 4 4 4 3 2 2 2 2 3 3 6 8 10 10 10 10 10
7 7 6 4 5 5 7 11 11 11 10 9 9 9 9 8 7 7 6 6 7 7 7 6 6 5 5 4 5 5 4 2 2 2 2 4 8 10 11 11 10 10 10
8 6 6 5 4 4 5 8 9 10 9 8 6 8 6 2 3 4 6 7 7 8 8 7 6 5 4 5 6 6 3 1 3 2 3 6 9 10 11 11 11 11 11
9 8 7 7 6 5 5 4 3 4 4 3 2 2 2 2 2 4 6 8 8 8 8 7 6 5 4 2 4 5 1 2 2 3 4 8 9 11 11 11 11 11 11
10 9 8 7 7 6 4 4 2 2 2 3 3 3 2 1 2 2 1 3 3 4 3 3 3 2 3 3 2 2 2 2 2 3 4 9 10 11 12 11 11 11 11
9 8 8 8 7 7 5 4 4 3 2 2 3 4 3 1 1 2 1 2 2 1 2 2 2 3 3 4 4 4 3 3 3 2 4 10 11 12 12 11 11 11 11
8 7 8 8 7 6 5 4 4 4 4 4 3 3 4 3 2 2 2 2 2 2 2 2 3 4 4 4 3 4 4 4 4 4 3 9 10 11 12 12 11 11 11
8 7 7 8 7 6 5 4 3 3 3 3 3 4 4 3 3 2 2 2 2 2 3 3 3 3 2 2 2 2 3 3 4 4 3 5 11 11 12 12 11 12 12
9 7 7 7 7 7 6 5 4 3 3 3 3 3 4 3 3 2 2 2 2 2 2 2 2 1 2 2 1 2 2 3 4 4 4 2 4 9 11 11 11 12 12
9 7 7 8 7 6 5 4 3 3 3 3 3 3 3 3 3 2 2 2 2 1 1 2 1 1 1 1 1 1 1 1 3 3 3 3 3 4 7 11 11 11 12
9 8 7 6 7 6 5 4 3 3 3 3 2 2 2 3 3 2 2 2 1 1 1 1 1 1 1 1 1 2 1 1 2 3 3 4 4 4 3 7 10 10 11
9 8 7 6 6 5 3 2 1 1 2 2 3 3 3 3 3 2 2 1 1 1 0 0 1 1 1 1 1 1 1 1 2 2 3 3 3 4 4 4 4 6 10
7 7 7 6 6 4 3 3 2 2 2 2 2 3 3 3 3 3 2 1 1 1 1 1 1 0 1 1 1 1 2 1 1 2 2 2 3 4 3 4 3 3 3
8 8 8 7 6 5 4 3 3 2 2 2 2 2 3 3 2 2 2 1 1 1 1 1 1 1 1 0 1 1 2 3 2 1 1 2 2 2 3 4 4 4 3
8 8 8 7 6 5 4 2 1 1 1 0 1 1 2 2 2 2 2 2 2 2 1 1 1 2 0 1 1 2 2 2 2 2 1 1 1 1 2 2 4 4 5
10 9 7 7 6 5 5 4 4 3 3 3 2 2 2 2 2 2 3 3 2 2 2 1 1 1 2 0 1 0 2 3 2 1 2 1 1 2 3 3 2 3 3
11 9 8 7 6 6 5 5 5 3 3 2 1 2 1 1 2 2 2 2 2 2 2 1 1 1 1 1 1 1 0 0 1 2 2 2 2 1 2 2 2 2 3
9 9 9 8 8 7 6 6 6 5 4 3 2 2 1 1 1 1 2 2 2 2 2 2 1 1 1 1 1 1 1 1 1 2 2 2 1 2 1 1 1 1 2
Wind_Direction
148 147 130 123 119 118 117 115 115 116 117 116 115 115 116 116 116 116 115 115 116 117 115 111 110 109 109 109 109 109 111 113 114 117 121 124 125 125 125 122 120 120 124
145 139 130 125 122 120 119 120 122 124 123 121 118 118 118 119 119 119 118 118 119 118 117 116 114 112 110 112 113 112 114 116 119 122 123 122 127 129 130 127 128 131 129
135 137 131 128 123 121 120 121 126 129 127 124 122 121 121 121 122 121 122 123 122 120 120 120 118 115 114 115 117 118 119 120 122 123 121 115 124 131 134 136 136 135 134
135 134 129 128 124 123 121 121 125 129 127 126 125 125 125 125 125 124 126 127 125 125 126 125 123 120 120 121 120 121 124 121 127 130 124 130 139 138 141 143 143 142 140
130 129 134 129 128 128 126 124 124 129 130 130 130 131 130 131 131 132 132 131 132 133 135 135 132 131 130 128 125 127 132 128 137 124 120 138 147 153 153 151 149 149 147
132 133 137 131 130 131 132 130 129 130 132 133 134 135 135 135 136 139 141 141 141 143 145 148 150 148 148 144 140 135 139 149 145 122 144 164 162 162 159 157 155 154 154
137 138 138 134 134 135 135 134 134 134 137 141 143 143 143 144 145 147 150 151 154 156 160 164 168 170 175 180 190 197 176 172 142 149 158 169 174 167 165 164 160 160 161
141 139 139 140 140 140 141 140 140 140 143 148 152 153 154 156 156 161 165 167 170 175 181 184 189 196 202 211 224 234 241 212 143 148 160 178 177 174 169 166 167 167 166
143 141 141 146 145 146 147 147 148 149 150 155 159 162 166 169 172 175 179 184 189 193 197 200 205 210 217 230 241 249 239 171 142 167 194 188 181 180 174 174 172 172 170
144 148 148 147 147 150 152 153 154 155 157 160 166 172 176 178 181 187 192 199 203 207 210 211 217 224 231 244 250 249 228 182 174 177 194 196 188 185 181 180 178 178 178
152 157 156 160 162 158 160 163 161 163 166 168 174 180 181 185 192 199 208 208 212 215 217 219 223 232 244 253 254 254 248 185 173 179 199 200 193 190 188 186 184 184 185
166 173 170 168 171 172 172 161 167 171 171 176 179 189 189 202 214 212 216 219 220 223 225 226 223 232 247 256 260 262 236 187 182 192 209 204 200 197 197 194 189 189 189
170 173 172 172 175 176 170 164 172 171 173 184 186 191 195 203 219 222 213 237 238 232 234 237 227 220 216 221 233 238 218 192 187 199 212 204 204 201 201 198 195 194 193
165 171 171 170 170 174 168 168 171 175 186 194 197 187 182 189 205 213 208 219 218 228 221 213 219 232 232 229 222 219 209 196 195 194 214 208 201 200 201 199 199 198 197
161 166 168 167 166 168 164 172 168 178 188 196 196 190 182 188 198 205 212 214 212 209 212 216 219 229 236 231 219 211 204 201 198 199 215 209 200 201 202 203 203 203 202
170 171 170 166 168 165 169 174 173 179 184 183 188 191 187 191 191 189 202 216 224 214 212 209 217 221 230 237 247 229 211 193 196 197 209 207 204 204 205 205 206 206 206
175 175 173 172 168 168 174 181 176 182 179 187 195 195 190 190 185 179 196 218 228 215 210 208 222 218 230 245 261 252 221 198 186 192 200 205 212 214 211 211 211 212 211
170 174 179 175 169 174 175 175 168 172 172 182 185 195 198 191 179 174 196 221 228 220 200 196 204 192 235 237 242 249 241 216 200 197 195 197 205 213 217 217 216 216 218
170 172 175 166 166 172 171 170 170 166 168 178 180 196 207 199 181 173 197 217 205 194 207 215 166 175 210 250 253 250 250 226 222 210 200 207 211 211 208 216 214 216 221
169 168 167 163 166 166 161 152 151 150 176 189 192 204 198 198 185 169 180 203 171 140 287 175 167 185 199 214 258 290 274 247 230 207 206 202 208 217 213 213 211 217 221
164 163 166 166 171 160 156 158 161 187 196 201 205 198 192 192 184 165 175 185 151 144 188 171 151 187 242 176 89 347 334 314 257 228 206 193 200 209 207 213 205 204 219
169 174 173 173 171 172 171 170 171 174 191 190 192 189 188 183 182 169 162 176 162 151 139 92 113 125 275 133 132 92 358 343 329 277 225 189 201 202 212 213 201 201 209
176 180 179 176 172 175 168 150 136 88 52 58 187 200 206 180 173 158 166 170 172 157 174 189 146 140 175 295 163 145 146 234 303 323 301 257 199 205 214 221 214 210 209
186 180 175 173 172 174 165 161 165 171 188 209 203 195 199 188 179 167 168 170 173 164 178 200 140 143 143 214 296 224 181 174 167 309 321 306 241 216 211 210 208 207 213
182 179 178 171 175 179 172 172 172 180 195 195 179 174 189 203 194 180 168 160 163 169 177 171 139 145 152 173 205 239 267 157 154 168 265 305 323 287 237 220 203 201 212
182 180 177 174 182 182 177 176 178 181 181 173 184 185 201 219 226 205 180 169 172 176 179 185 170 157 164 178 188 180 172 176 196 176 203 243 276 289 291 274 220 200 209